Hourly Data Report for July 26, 2011

HALIFAX STANFIELD INT'L A
NOVA SCOTIA

44°52'48.060" N
63°30'00.050" W
145.40 m
8202250
71395
YHZ

Download Data

Hourly Data (July 2011)
Hourly Data Report for July 26, 2011
TIME
LST
Temp Definition
°C
Dew Point Definition
°C
Rel Hum Definition
%
Precip. Amount Definition
mm

Wind Dir Definition
10's deg

Wind Spd Definition
km/h
Visibility Definition
km
Stn Press Definition
kPa
Hmdx Definition


Wind Chill Definition


Weather Definition


00:00 10.7 9.4 92   15 15 24.1 99.72     Mainly Clear
01:00 11.3 10.0 92   14 15 24.1 99.66     Mainly Clear
02:00 12.1 11.1 94   12 9 24.1 99.61     Mostly Cloudy
03:00 12.1 11.3 95   13 9 24.1 99.59     Cloudy
04:00 11.8 11.0 95   12 11 24.1 99.57     Cloudy
05:00 12.1 10.7 91   11 9 24.1 99.58     Mostly Cloudy
06:00 12.8 10.5 86   14 19 24.1 99.56     Mostly Cloudy
07:00 14.0 11.0 82   13 6 24.1 99.63     Mostly Cloudy
08:00 16.2 11.9 76   11 17 24.1 99.55     Mostly Cloudy
09:00 17.0 12.1 73   14 24 24.1 99.48     Cloudy
10:00 17.4 9.1 58   13 26 24.1 99.50     Cloudy
11:00 18.1 13.8 76   13 22 24.1 99.47     Cloudy
12:00 18.5 14.3 77   14 22 24.1 99.33     Cloudy
13:00 18.3 14.2 77   13 22 24.1 99.36     Cloudy
14:00 17.9 14.0 78   14 19 24.1 99.31     Cloudy
15:00 17.0 14.0 82   12 26 24.1 99.26     Cloudy
16:00 16.8 14.0 84   12 24 24.1 99.23     Cloudy
17:00 16.8 14.3 85   11 17 24.1 99.20     Cloudy
18:00 16.4 14.2 87   10 22 24.1 99.16     Cloudy
19:00 15.9 14.7 93   9 9 19.3 99.15     Rain Showers
20:00 15.6 14.8 95   20 9 4.8 99.18     Rain, Fog
21:00 15.5 14.7 95   13 6 4.8 99.17     Rain, Fog
22:00 15.4 14.7 96   13 6 8.0 99.14     Rain, Fog
23:00 15.5 14.8 96   14 6 6.4 99.10     Rain, Fog

Notes on Data Quality.

Legend

  • E = Estimated
  • M = Missing
  • NA = Not Available*
  • [empty] = Indicates an unobserved value
Date modified: